Probability
58 58 58 61 58 58 61 61 61 65 55 48 45 42 39 39 35 35 29 35 35 32 29 32 32 32 32 29 26 26 26 26 26 23 23 29 32 26 19 19 23 26 23
52 52 58 55 55 55 52 52 58 61 55 48 42 39 32 39 32 32 29 32 29 26 29 29 32 32 39 35 32 26 29 32 32 35 29 32 39 32 32 29 13 13 23
39 42 45 48 48 52 48 48 55 58 52 45 42 45 42 29 32 32 32 32 29 26 26 26 32 32 35 35 32 29 29 26 35 39 32 39 32 29 32 35 19 13 13
39 29 39 39 39 45 45 45 48 45 42 45 39 39 39 29 29 29 29 29 26 26 26 32 35 35 35 32 29 26 26 32 32 35 35 32 29 29 29 29 26 26 19
29 29 29 35 35 35 35 39 39 35 35 39 39 39 35 26 23 23 23 16 29 29 32 32 32 29 23 23 16 23 23 23 26 29 29 29 32 26 23 26 23 19 19
32 32 32 32 29 29 29 32 35 26 23 29 32 32 29 19 6 3 13 16 23 29 32 29 29 26 23 10 6 6 16 19 23 23 29 29 32 32 29 23 19 23 23
29 29 29 26 29 26 26 29 32 29 19 23 23 26 19 16 6 0 0 13 19 26 26 26 19 16 19 23 13 6 3 3 3 23 23 26 29 26 23 29 26 26 26
32 19 23 29 32 26 23 29 26 32 23 23 19 16 16 16 10 0 0 3 23 26 26 26 23 23 16 19 19 19 23 23 19 13 19 26 23 26 26 23 23 26 19
26 26 26 19 19 23 26 23 29 29 26 19 19 19 19 13 6 0 0 19 23 23 26 23 23 23 16 13 19 19 19 19 19 13 10 10 10 6 6 23 23 19 19
16 16 19 23 19 13 23 23 19 16 19 16 16 16 16 16 10 0 0 19 19 19 23 19 16 16 10 10 16 16 16 16 16 16 16 13 10 13 3 10 23 23 23
3 10 10 10 13 13 13 16 19 16 19 19 16 16 16 16 10 6 0 13 19 19 19 19 16 10 3 3 3 13 10 13 16 19 16 23 26 26 19 19 19 29 16
3 3 6 13 10 10 13 16 13 13 13 19 19 16 16 16 10 10 0 0 3 16 19 23 16 6 3 0 0 3 3 3 10 10 13 19 16 16 19 19 16 13 16
6 6 10 13 10 10 10 10 16 13 13 13 16 16 13 13 10 10 0 0 0 3 16 10 6 6 0 3 0 0 0 10 10 10 10 13 13 13 13 13 13 19 19
6 6 10 13 10 10 13 10 10 10 6 6 6 10 13 13 6 6 6 3 0 0 6 6 6 0 0 6 6 6 10 10 10 10 10 10 10 10 10 10 10 13 13
3 3 10 10 10 13 10 10 10 10 10 10 6 10 13 10 3 0 0 0 0 0 3 6 10 10 10 10 10 10 10 10 10 10 10 10 6 10 13 10 13 6 10
6 6 10 10 10 6 10 6 3 0 0 3 0 3 6 0 0 0 0 0 0 0 0 3 10 10 10 10 10 10 10 10 10 10 10 10 16 16 10 10 6 6 3
6 6 6 10 10 10 6 6 6 3 0 0 0 0 0 0 0 0 0 0 0 0 0 0 6 6 6 10 13 10 6 10 10 10 10 10 13 6 6 3 3 3 3
3 3 3 6 10 6 6 6 10 10 3 3 0 0 0 0 0 0 0 0 0 3 0 0 0 10 6 10 10 10 10 10 13 13 13 10 6 3 3 3 3 3 0
3 3 3 3 3 3 3 3 3 3 6 3 3 0 0 0 0 0 0 0 3 3 3 3 3 3 3 3 10 10 10 10 13 13 13 10 10 6 3 0 0 0 0
3 0 3 3 3 3 3 3 3 3 0 0 0 0 0 3 0 0 3 3 0 0 3 3 6 6 6 3 3 3 6 10 6 6 6 3 3 0 0 0 0 0 0
0 0 0 0 0 0 0 0 0 0 0 0 0 0 0 0 0 0 3 0 0 0 0 0 6 6 3 3 3 3 0 3 3 3 0 3 0 0 0 0 0 0 0
0 0 0 0 0 0 0 0 0 0 0 0 0 0 0 0 0 0 0 0 0 0 0 3 0 0 0 0 0 0 0 3 3 3 3 0 0 0 0 0 0 0 0
0 0 0 0 0 0 0 0 0 0 0 0 0 0 0 0 0 0 0 0 0 0 0 0 0 0 0 0 0 0 0 0 3 3 3 3 3 0 0 0 0 0 0
0 0 0 0 0 0 0 0 0 0 0 0 0 0 0 0 0 0 0 3 3 0 0 0 0 0 0 0 0 0 0 0 0 0 0 0 3 3 0 0 0 0 0
0 0 0 0 0 0 0 0 0 0 0 0 0 0 0 0 0 0 0 0 0 0 0 0 0 0 0 0 0 0 0 0 0 0 0 0 0 0 0 0 0 0 0
0 3 3 0 0 0 0 0 0 0 0 0 0 3 3 3 3 3 0 0 0 0 0 0 0 0 0 0 0 0 0 0 0 0 0 0 3 3 3 3 0 0 0
Height
5878 5876 5874 5871 5869 5866 5864 5861 5859 5857 5854 5852 5849 5846 5844 5841 5839 5837 5834 5832 5830 5828 5827 5825 5823 5822 5820 5818 5816 5814 5812 5810 5808 5805 5803 5801 5798 5797 5795 5793 5791 5789 5788
5874 5872 5870 5867 5864 5862 5859 5857 5854 5852 5849 5847 5844 5841 5839 5836 5833 5831 5828 5826 5824 5822 5820 5819 5817 5815 5813 5811 5809 5807 5805 5803 5801 5798 5796 5794 5792 5789 5788 5786 5784 5782 5780
5870 5868 5865 5863 5860 5857 5854 5852 5849 5846 5844 5841 5838 5836 5833 5830 5828 5825 5822 5820 5818 5816 5814 5812 5810 5808 5806 5804 5802 5800 5798 5796 5793 5791 5789 5786 5785 5783 5780 5778 5777 5775 5773
5865 5863 5861 5858 5855 5852 5849 5847 5844 5841 5838 5835 5833 5830 5827 5824 5822 5819 5816 5814 5812 5810 5807 5805 5803 5801 5799 5797 5795 5793 5790 5788 5786 5784 5781 5779 5777 5775 5773 5771 5769 5767 5765
5860 5858 5855 5852 5849 5846 5844 5841 5838 5835 5832 5829 5827 5824 5821 5818 5816 5813 5810 5807 5805 5803 5800 5798 5796 5794 5792 5790 5787 5785 5783 5780 5778 5776 5774 5772 5770 5768 5766 5764 5762 5759 5757
5855 5853 5850 5847 5844 5841 5838 5835 5832 5829 5826 5823 5820 5817 5814 5811 5809 5805 5803 5800 5798 5796 5793 5791 5789 5787 5785 5782 5780 5777 5775 5773 5771 5769 5767 5765 5763 5761 5758 5756 5754 5752 5750
5849 5847 5844 5841 5838 5835 5832 5829 5826 5823 5820 5817 5814 5810 5807 5804 5802 5799 5796 5793 5791 5788 5786 5784 5782 5779 5777 5774 5772 5769 5767 5765 5763 5761 5759 5757 5755 5753 5751 5748 5746 5745 5742
5843 5841 5838 5835 5832 5829 5826 5822 5819 5816 5813 5810 5807 5804 5800 5797 5795 5792 5789 5786 5783 5781 5779 5776 5774 5771 5769 5766 5764 5762 5759 5757 5755 5752 5751 5749 5747 5745 5743 5741 5739 5737 5735
5838 5835 5832 5829 5826 5823 5819 5816 5813 5809 5806 5803 5800 5797 5793 5790 5787 5784 5781 5778 5776 5773 5771 5769 5766 5764 5762 5759 5756 5754 5751 5749 5746 5744 5742 5740 5738 5736 5734 5733 5731 5729 5727
5831 5828 5825 5822 5819 5816 5813 5809 5806 5803 5799 5796 5792 5789 5786 5783 5779 5776 5774 5771 5768 5766 5763 5761 5759 5756 5754 5751 5748 5746 5743 5741 5738 5736 5734 5732 5730 5728 5726 5724 5722 5721 5719
5824 5821 5819 5815 5812 5809 5805 5802 5799 5795 5792 5788 5785 5782 5778 5775 5772 5769 5766 5763 5760 5758 5756 5753 5751 5748 5746 5743 5740 5738 5735 5732 5730 5727 5725 5723 5721 5719 5717 5715 5714 5712 5710
5817 5814 5811 5808 5805 5801 5798 5795 5791 5787 5784 5780 5777 5774 5770 5767 5764 5761 5758 5756 5753 5750 5747 5745 5742 5740 5737 5735 5732 5729 5727 5724 5722 5719 5716 5714 5712 5710 5709 5707 5705 5703 5702
5810 5807 5804 5801 5798 5794 5791 5787 5783 5780 5776 5772 5769 5766 5762 5759 5756 5754 5751 5748 5745 5742 5739 5737 5734 5731 5729 5726 5724 5721 5718 5716 5713 5711 5708 5706 5704 5702 5700 5698 5697 5695 5694
5803 5800 5797 5793 5790 5786 5783 5779 5775 5772 5768 5764 5761 5758 5755 5751 5748 5745 5743 5740 5737 5734 5732 5729 5726 5723 5721 5718 5716 5713 5710 5707 5705 5702 5700 5698 5696 5694 5692 5690 5688 5687 5685
5796 5792 5789 5786 5782 5779 5775 5771 5768 5764 5760 5757 5753 5750 5747 5744 5741 5737 5734 5732 5729 5726 5723 5721 5718 5715 5713 5710 5707 5704 5702 5699 5697 5694 5692 5690 5688 5686 5684 5682 5680 5679 5677
5789 5785 5782 5778 5774 5771 5767 5763 5759 5756 5752 5748 5745 5742 5739 5736 5732 5729 5727 5724 5721 5718 5715 5713 5710 5707 5704 5702 5699 5696 5694 5692 5689 5686 5684 5682 5680 5678 5676 5674 5672 5671 5669
5781 5778 5774 5770 5767 5763 5759 5755 5752 5748 5744 5740 5737 5733 5730 5727 5724 5721 5718 5715 5713 5710 5707 5704 5701 5699 5696 5693 5691 5688 5686 5684 5681 5679 5677 5674 5672 5671 5669 5667 5665 5663 5662
5774 5770 5767 5763 5759 5755 5751 5747 5743 5739 5736 5732 5728 5725 5722 5718 5715 5712 5709 5707 5704 5701 5698 5696 5693 5690 5688 5685 5683 5681 5678 5676 5674 5671 5669 5667 5665 5663 5662 5660 5658 5657 5656
5766 5762 5758 5755 5751 5747 5743 5739 5735 5731 5727 5724 5720 5716 5713 5710 5707 5704 5701 5698 5696 5693 5690 5688 5685 5683 5680 5678 5676 5673 5671 5669 5667 5665 5662 5661 5659 5657 5655 5654 5652 5650 5649
5758 5754 5750 5746 5743 5739 5734 5731 5727 5723 5719 5715 5711 5708 5704 5700 5697 5695 5692 5690 5688 5685 5683 5680 5678 5675 5673 5671 5668 5666 5664 5662 5660 5658 5656 5654 5652 5650 5648 5647 5645 5644 5643
5749 5746 5742 5738 5734 5730 5726 5722 5719 5715 5710 5706 5702 5699 5695 5692 5689 5687 5684 5682 5680 5677 5675 5673 5671 5668 5666 5664 5662 5660 5658 5656 5654 5651 5649 5647 5645 5643 5642 5640 5639 5637 5636
5741 5737 5734 5730 5726 5722 5719 5715 5711 5707 5703 5699 5695 5692 5688 5685 5682 5679 5677 5675 5672 5670 5668 5666 5664 5662 5660 5658 5655 5653 5651 5649 5647 5645 5642 5641 5639 5637 5635 5634 5632 5631 5629
5733 5730 5726 5722 5718 5715 5711 5707 5703 5699 5696 5692 5688 5684 5681 5678 5675 5672 5670 5667 5665 5663 5661 5659 5657 5655 5653 5651 5648 5646 5644 5642 5640 5638 5636 5634 5632 5630 5628 5627 5625 5624 5622
5725 5722 5718 5715 5711 5707 5703 5700 5696 5692 5689 5685 5681 5678 5674 5671 5668 5665 5663 5661 5659 5656 5654 5652 5650 5648 5646 5643 5641 5639 5637 5635 5633 5631 5629 5627 5625 5623 5621 5620 5618 5617 5615
5718 5714 5711 5707 5704 5700 5696 5693 5689 5686 5682 5679 5675 5671 5668 5665 5662 5659 5657 5654 5652 5650 5648 5645 5643 5641 5638 5636 5634 5632 5630 5628 5626 5624 5622 5620 5618 5616 5614 5613 5611 5610 5608
5710 5707 5704 5700 5697 5693 5690 5686 5683 5679 5676 5672 5669 5666 5663 5660 5656 5653 5651 5648 5645 5643 5640 5638 5636 5633 5631 5628 5626 5625 5623 5621 5619 5616 5614 5613 5611 5609 5607 5606 5604 5602 5601
Wind_Speed
15 17 18 19 19 20 20 20 20 20 21 21 22 23 23 23 22 21 21 21 22 21 21 21 21 22 20 21 21 22 22 23 23 24 24 25 25 25 25 26 26 26 26
17 19 20 21 21 22 22 21 21 21 22 23 24 24 25 24 24 23 23 23 22 22 22 23 23 22 22 23 23 23 24 24 25 25 25 25 25 26 26 26 26 27 27
20 21 21 22 22 22 23 23 23 23 23 24 25 26 25 25 25 25 24 24 23 24 24 24 24 24 24 24 24 24 24 25 25 26 25 25 25 26 27 27 27 27 27
21 22 23 23 23 24 23 24 24 24 25 25 25 25 26 26 25 25 25 24 24 24 24 24 24 25 25 26 25 25 25 25 25 26 25 25 25 25 26 27 27 27 27
23 23 24 24 24 25 24 25 25 25 25 25 25 26 26 27 27 26 25 25 24 25 25 25 25 25 26 27 26 26 26 26 26 26 25 26 26 26 27 27 27 27 28
24 25 25 25 25 25 26 25 25 25 25 25 26 26 26 27 27 27 26 26 26 26 26 25 26 26 26 27 26 26 26 26 26 27 27 27 27 27 27 27 27 27 27
25 25 25 26 26 27 26 26 26 26 26 26 27 27 27 27 27 26 26 27 27 27 26 26 26 27 27 27 27 27 27 27 27 28 27 27 27 27 27 27 27 27 27
24 24 26 26 26 26 26 26 26 27 27 27 27 28 28 28 28 28 28 27 27 26 26 26 26 26 27 27 27 27 27 27 27 28 28 28 27 27 27 27 27 27 27
24 25 26 27 26 26 26 27 27 27 28 28 28 28 29 29 29 29 28 27 26 27 26 26 27 27 27 27 28 27 27 27 28 28 28 27 27 27 27 27 27 27 27
26 27 28 28 28 28 28 27 28 28 28 28 29 29 30 29 29 29 28 27 27 26 27 27 28 28 28 28 28 28 28 28 28 28 28 28 27 27 28 28 28 28 27
28 29 29 29 30 30 30 30 29 29 30 30 30 30 30 30 30 29 28 28 28 28 28 28 28 28 28 28 29 28 28 28 28 28 28 28 28 27 28 28 28 29 28
29 29 30 30 30 30 31 31 31 30 30 30 30 30 30 30 29 29 28 28 28 28 28 28 28 28 28 29 29 28 28 28 28 28 28 27 27 27 27 27 27 27 27
29 30 30 30 30 31 31 31 31 31 31 30 30 30 29 29 29 28 28 28 28 28 28 28 28 28 28 28 28 28 28 28 28 27 27 27 27 26 27 26 26 26 26
30 30 30 30 31 31 31 31 31 31 30 30 30 30 30 29 29 29 28 27 28 28 27 27 27 27 27 27 27 27 27 27 27 26 26 26 26 26 26 26 26 26 26
29 30 30 30 31 31 32 32 31 31 30 30 30 29 29 29 29 28 28 28 28 28 27 27 27 27 27 28 27 27 27 26 26 26 26 25 25 25 25 25 25 25 25
29 30 30 31 31 32 32 32 32 31 31 31 31 30 30 29 29 29 29 29 29 28 28 28 28 28 28 28 28 27 26 25 25 25 25 25 25 24 25 24 24 23 23
30 30 31 31 31 32 32 32 32 32 31 31 31 30 30 30 29 29 29 29 29 29 29 28 28 28 27 27 27 26 25 25 25 25 24 24 23 23 23 23 22 22 22
31 30 30 31 32 32 32 32 31 32 32 31 31 30 30 29 29 29 29 29 28 28 28 28 27 27 26 26 25 25 25 25 25 24 24 23 22 22 22 22 21 21 21
31 31 31 31 32 32 32 31 31 31 32 31 30 30 29 29 29 29 28 28 27 27 26 26 26 26 26 25 24 24 24 23 23 23 23 23 22 22 22 22 21 21 21
31 31 31 31 32 32 31 30 30 30 30 30 29 29 29 29 28 28 27 27 27 26 25 25 25 25 24 24 24 23 22 22 22 23 23 22 22 22 21 21 21 21 21
30 30 30 31 30 30 29 29 29 29 29 29 29 28 28 27 27 26 27 27 26 25 24 24 24 24 23 23 22 22 22 22 22 22 22 22 22 21 21 20 20 20 21
30 29 29 29 29 29 28 28 28 28 28 28 28 27 27 27 27 26 25 25 25 25 24 23 23 22 23 23 22 22 22 22 22 22 22 21 21 21 21 21 21 21 20
29 29 29 29 29 28 27 27 27 27 28 28 27 27 27 27 26 26 25 24 24 24 24 23 22 22 23 23 22 22 22 22 22 22 22 22 21 21 21 21 21 20 20
29 29 29 29 27 27 27 27 27 26 26 27 27 27 27 26 25 24 24 23 23 22 22 23 23 23 23 23 23 23 22 22 22 22 22 21 21 21 21 20 20 20 20
28 28 28 27 26 26 26 26 26 26 26 26 26 26 26 25 24 23 22 22 22 22 23 23 23 23 23 23 23 23 22 22 22 21 21 21 21 21 20 20 20 20 21
28 28 27 26 25 25 25 25 25 25 25 25 24 24 24 23 23 23 23 23 23 23 22 22 23 23 23 23 23 23 23 22 22 22 21 20 20 21 21 21 21 21 21
Wind_Direction
303 308 310 310 309 309 308 307 307 308 308 308 306 306 305 303 303 303 300 298 295 293 292 290 290 291 292 294 293 293 293 292 293 292 290 289 288 288 288 287 287 286 284
301 304 306 307 308 307 306 305 305 306 306 306 306 305 303 303 302 300 299 299 295 292 291 291 291 290 292 292 293 292 292 293 293 293 291 288 287 287 287 287 286 285 284
300 303 304 305 306 307 306 305 306 305 305 305 305 305 304 303 302 301 298 297 296 294 293 292 291 290 291 292 292 293 293 292 293 292 291 289 287 286 286 287 287 286 285
299 301 303 304 304 305 305 305 305 305 304 304 304 305 304 304 303 301 299 296 296 295 293 291 291 290 291 291 291 292 292 292 292 292 291 288 287 287 287 288 288 286 286
297 299 300 302 304 306 306 306 305 305 305 305 305 305 304 302 301 299 297 296 295 295 294 293 292 291 292 292 291 291 291 292 292 291 290 288 286 287 286 288 289 288 286
296 296 298 299 302 304 304 304 306 305 305 306 305 305 304 302 301 299 297 296 294 293 293 293 293 291 291 291 291 291 291 291 292 291 290 289 288 288 287 286 288 288 288
297 297 297 298 300 302 302 303 303 304 305 305 304 304 303 303 301 300 298 297 294 293 293 294 293 292 292 292 291 290 289 289 290 291 291 291 289 288 287 286 286 286 288
298 300 299 299 301 302 301 301 302 303 304 304 303 303 302 302 300 299 298 296 295 293 293 293 294 295 294 293 293 292 291 290 290 290 291 291 290 288 287 286 285 285 287
296 298 299 300 301 302 301 300 302 303 303 303 302 302 302 301 299 298 298 297 294 292 293 293 294 295 295 295 293 292 291 289 289 290 291 292 290 288 286 285 285 285 286
294 295 297 298 299 301 303 303 302 302 302 303 302 301 301 300 299 298 298 297 296 295 294 294 294 294 294 295 294 293 291 291 290 290 292 293 290 287 285 284 284 285 286
294 295 296 297 299 300 303 303 303 302 303 303 302 302 301 299 299 299 297 297 296 294 294 294 294 294 294 294 294 293 293 292 292 292 292 292 291 289 288 287 286 285 286
297 298 300 301 303 304 304 304 303 303 302 302 302 302 301 300 299 298 297 297 297 296 295 295 294 293 293 293 294 293 292 293 294 293 293 291 290 289 290 289 288 286 286
296 299 301 302 303 304 304 304 304 303 302 300 301 302 302 301 299 298 297 297 296 295 296 295 294 293 293 294 295 295 294 294 295 293 292 292 290 290 290 288 288 287 287
298 299 301 301 302 303 304 304 304 304 303 301 300 300 300 299 298 298 297 296 296 296 298 297 296 295 295 295 296 296 297 297 295 294 291 290 289 290 289 289 288 287 286
300 300 302 303 303 304 304 304 304 303 303 301 301 300 299 298 297 297 297 297 297 298 298 298 296 295 296 296 295 295 296 297 296 295 292 289 289 288 289 288 287 285 286
300 301 302 303 303 304 304 304 304 303 303 303 302 301 299 299 298 297 297 297 298 298 297 298 297 297 296 295 294 294 295 296 296 295 293 290 289 289 289 288 289 287 285
301 302 303 303 303 304 304 304 304 304 304 303 302 301 299 298 297 296 295 296 297 298 298 298 298 297 297 296 295 294 294 295 296 295 293 291 288 289 290 288 287 288 287
302 302 302 303 304 304 304 304 304 304 304 304 303 303 301 300 299 297 297 297 297 299 299 299 299 298 297 296 294 294 294 295 295 293 292 292 291 290 290 288 286 285 286
303 303 303 303 304 304 305 304 304 305 305 304 304 303 301 300 299 298 297 297 298 299 300 299 300 299 297 297 295 294 294 294 294 295 295 293 292 291 288 288 287 285 284
303 304 304 305 304 304 305 305 306 306 306 305 305 304 303 301 299 298 297 298 299 299 299 300 301 300 298 297 296 295 294 294 294 294 295 294 291 290 288 286 286 286 284
305 305 305 305 305 305 305 305 306 306 307 307 307 307 306 304 303 301 298 297 297 299 299 299 299 299 298 297 296 295 294 294 294 295 294 293 293 292 290 287 286 286 285
305 305 305 306 306 305 306 307 307 308 308 308 309 309 308 306 304 302 300 298 297 297 298 298 297 298 297 296 296 296 295 295 295 295 293 291 291 292 292 290 288 287 286
304 305 306 306 307 307 307 308 309 309 308 308 308 309 308 306 304 302 300 298 298 297 296 297 297 296 295 295 295 296 296 295 295 295 293 291 291 291 290 288 287 287 287
303 304 306 307 307 308 309 309 310 309 309 309 308 308 308 308 306 304 301 299 298 297 297 297 297 296 295 294 294 295 294 295 296 294 291 290 290 291 290 288 287 286 285
304 304 305 308 310 309 310 310 311 310 309 309 309 309 309 308 308 308 304 300 298 297 298 298 298 297 296 295 294 294 294 295 296 296 293 291 290 289 288 288 287 286 285
304 304 306 308 310 310 311 312 312 313 311 310 310 310 309 309 310 310 308 305 302 301 301 300 299 299 298 296 294 294 294 294 294 296 293 291 290 289 288 287 286 286 284